GW5060 Weather Reports


time (UTC)temp
F
wind
direction
speed
knots
gust
knots
rain 1hr
in
rain 24hr
in
rain mn
in
humidity
%
barometer
mb
20260902194557 80 53 0.0 0.9 0.00 0.00 0.00 65 1017.3
20260902194041 80 53 0.0 0.9 0.00 0.00 0.00 62 1017.2
20260902193538 80 0 0.0 0.0 0.00 0.00 0.00 61 1017.2
20260902193059 80 0 0.0 0.0 0.00 0.00 0.00 61 1017.2
20260902192537 81 0 0.0 0.0 0.00 0.00 0.00 60 1017.2
20260902192037 81 0 0.0 0.9 0.00 0.00 0.00 61 1017.1
20260902191609 81 0 0.0 0.9 0.00 0.00 0.00 59 1017.1
20260902191036 82 0 0.0 0.9 0.00 0.00 0.00 60 1017.0
20260902190539 82 0 0.0 1.7 0.00 0.00 0.00 59 1017.0
20260902190104 82 0 0.0 1.7 0.00 0.00 0.00 59 1017.0
20260902185555 83 0 0.0 1.7 0.00 0.00 0.00 58 1016.9
20260902185036 83 360 0.0 1.7 0.00 0.00 0.00 58 1016.8
20260902184557 84 360 0.9 1.7 0.00 0.00 0.00 57 1016.7
20260902184037 84 0 0.0 0.9 0.00 0.00 0.00 57 1016.7
20260902183537 85 0 0.0 0.0 0.00 0.00 0.00 56 1016.6
20260902183055 85 0 0.0 0.9 0.00 0.00 0.00 55 1016.5
20260902182536 85 0 0.0 0.9 0.00 0.00 0.00 54 1016.5
20260902182036 86 0 0.0 0.9 0.00 0.00 0.00 54 1016.5
20260902181557 86 0 0.0 1.7 0.00 0.00 0.00 53 1016.4
20260902181037 86 0 0.0 1.7 0.00 0.00 0.00 53 1016.4
20260902180535 86 0 0.0 1.7 0.00 0.00 0.00 53 1016.4
20260902180056 86 295 0.0 1.7 0.00 0.00 0.00 53 1016.3
20260902175537 87 295 0.9 3.5 0.00 0.00 0.00 52 1016.3
20260902175037 87 294 0.9 3.5 0.00 0.00 0.00 52 1016.2
20260902174601 87 261 1.7 5.2 0.00 0.00 0.00 51 1016.2
20260902174039 87 295 2.6 5.2 0.00 0.00 0.00 51 1016.2
20260902173534 87 301 1.7 5.2 0.00 0.00 0.00 50 1016.1
20260902173102 87 254 0.9 6.1 0.00 0.00 0.00 50 1016.0
20260902172540 88 267 3.5 7.0 0.00 0.00 0.00 49 1016.0
20260902172036 88 289 2.6 7.0 0.00 0.00 0.00 48 1016.0
20260902171604 88 299 3.5 7.0 0.00 0.00 0.00 48 1016.1
20260902171038 88 313 1.7 7.0 0.00 0.00 0.00 48 1016.0
20260902170537 88 263 2.6 7.8 0.00 0.00 0.00 48 1016.0
20260902170054 89 262 3.5 8.7 0.00 0.00 0.00 47 1016.1
20260902165537 89 255 4.3 8.7 0.00 0.00 0.00 47 1016.1
20260902165040 89 311 3.5 7.8 0.00 0.00 0.00 46 1016.1
20260902164556 89 227 5.2 7.8 0.00 0.00 0.00 47 1016.0
20260902164034 89 262 3.5 7.8 0.00 0.00 0.00 48 1016.1
20260902163536 89 249 4.3 7.8 0.00 0.00 0.00 48 1016.0
20260902163057 89 209 2.6 7.8 0.00 0.00 0.00 48 1016.2
20260902162537 89 240 4.3 7.8 0.00 0.00 0.00 48 1016.1
20260902162037 89 239 3.5 7.8 0.00 0.00 0.00 48 1016.2
20260902161558 89 242 2.6 7.8 0.00 0.00 0.00 49 1016.1
20260902161036 89 236 2.6 7.8 0.00 0.00 0.00 50 1016.1
20260902160540 89 302 3.5 8.7 0.00 0.00 0.00 49 1016.2
20260902160100 89 257 5.2 8.7 0.00 0.00 0.00 49 1016.2
20260902155537 89 260 3.5 9.6 0.00 0.00 0.00 50 1016.2
20260902155036 89 298 3.5 9.6 0.00 0.00 0.00 50 1016.3
20260902154608 89 234 6.1 9.6 0.00 0.00 0.00 50 1016.4
20260902154036 89 225 6.1 9.6 0.00 0.00 0.00 50 1016.3
20260902153538 89 244 4.3 9.6 0.00 0.00 0.00 50 1016.5
20260902153103 89 307 5.2 9.6 0.00 0.00 0.00 50 1016.4
20260902152537 89 254 2.6 8.7 0.00 0.00 0.00 49 1016.5
20260902152037 89 283 3.5 9.6 0.00 0.00 0.00 50 1016.5
20260902151550 89 293 4.3 9.6 0.00 0.00 0.00 51 1016.6
20260902151037 89 227 3.5 9.6 0.00 0.00 0.00 51 1016.6
20260902150536 89 284 3.5 10.4 0.00 0.00 0.00 52 1016.7
20260902150058 89 279 3.5 10.4 0.00 0.00 0.00 51 1016.8
20260902145538 89 290 4.3 10.4 0.00 0.00 0.00 51 1016.9
20260902145040 89 323 3.5 7.8 0.00 0.00 0.00 51 1016.9
20260902144555 89 261 2.6 7.8 0.00 0.00 0.00 50 1016.9
20260902144037 89 316 4.3 8.7 0.00 0.00 0.00 50 1017.0
20260902143537 89 234 3.5 8.7 0.00 0.00 0.00 50 1017.0
20260902143101 89 277 3.5 7.8 0.00 0.00 0.00 50 1017.0
20260902142537 89 251 3.5 8.7 0.00 0.00 0.00 49 1017.1
20260902142037 90 277 3.5 8.7 0.00 0.00 0.00 48 1017.2
20260902141557 90 277 3.5 7.8 0.00 0.00 0.00 49 1017.2
20260902141036 90 325 0.9 7.0 0.00 0.00 0.00 48 1017.2
20260902140537 89 299 3.5 7.8 0.00 0.00 0.00 48 1017.3
20260902140056 89 252 0.9 7.8 0.00 0.00 0.00 49 1017.3
20260902135539 89 328 2.6 7.8 0.00 0.00 0.00 50 1017.4
20260902135037 89 275 0.9 8.7 0.00 0.00 0.00 50 1017.4
20260902134601 90 313 3.5 8.7 0.00 0.00 0.00 50 1017.6
20260902134036 90 312 4.3 7.8 0.00 0.00 0.00 50 1017.6
20260902133537 90 233 3.5 6.1 0.00 0.00 0.00 50 1017.6
20260902133058 90 11 1.7 6.1 0.00 0.00 0.00 50 1017.6
20260902132540 90 234 2.6 7.8 0.00 0.00 0.00 50 1017.8
20260902132037 89 277 1.7 7.8 0.00 0.00 0.00 52 1017.8
20260902131556 89 222 1.7 7.8 0.00 0.00 0.00 52 1017.9
20260902131040 89 327 2.6 7.8 0.00 0.00 0.00 52 1017.9
20260902130536 89 52 1.7 7.8 0.00 0.00 0.00 47 1018.0
20260902130057 89 293 3.5 7.8 0.00 0.00 0.00 51 1018.1
20260902125538 89 172 1.7 7.0 0.00 0.00 0.00 53 1018.2
20260902125038 89 345 0.9 7.0 0.00 0.00 0.00 50 1018.1
20260902124559 89 245 3.5 7.0 0.00 0.00 0.00 52 1018.2
20260902124041 89 209 1.7 7.0 0.00 0.00 0.00 53 1018.3
20260902123537 88 235 1.7 4.3 0.00 0.00 0.00 53 1018.4
20260902123104 88 55 0.9 6.1 0.00 0.00 0.00 53 1018.3
20260902122540 88 181 2.6 6.1 0.00 0.00 0.00 53 1018.4
20260902122036 88 244 2.6 5.2 0.00 0.00 0.00 53 1018.4
20260902121554 88 254 1.7 6.1 0.00 0.00 0.00 53 1018.4
20260902121037 88 289 3.5 7.0 0.00 0.00 0.00 53 1018.4
20260902120537 88 265 4.3 7.0 0.00 0.00 0.00 53 1018.5
20260902120100 88 298 2.6 7.0 0.00 0.00 0.00 53 1018.6
20260902115536 88 276 3.5 7.0 0.00 0.00 0.00 53 1018.7
20260902115036 88 297 3.5 7.8 0.00 0.00 0.00 52 1018.7
20260902114617 88 212 2.6 7.8 0.00 0.00 0.00 52 1018.7
20260902114033 89 254 2.6 7.8 0.00 0.00 0.00 52 1018.8
20260902113537 88 249 1.7 4.3 0.00 0.00 0.00 53 1018.8
20260902113106 88 229 1.7 7.0 0.00 0.00 0.00 54 1019.0
20260902112537 88 11 0.9 7.0 0.00 0.00 0.00 53 1018.9
20260902112037 88 237 0.9 5.2 0.00 0.00 0.00 52 1018.9
20260902111604 88 260 1.7 6.1 0.00 0.00 0.00 52 1019.0
20260902111037 88 211 0.9 6.1 0.00 0.00 0.00 53 1019.1
20260902110537 88 248 2.6 6.1 0.00 0.00 0.00 53 1019.1
20260902110058 87 0 0.9 6.1 0.00 0.00 0.00 53 1019.2
20260902105539 87 134 1.7 6.1 0.00 0.00 0.00 52 1019.3
20260902105036 87 115 0.9 3.5 0.00 0.00 0.00 54 1019.3
20260902104556 86 217 0.9 3.5 0.00 0.00 0.00 54 1019.4
20260902104035 86 166 0.9 6.1 0.00 0.00 0.00 56 1019.4
20260902103537 85 240 0.9 6.1 0.00 0.00 0.00 56 1019.4
20260902103107 85 138 3.5 6.1 0.00 0.00 0.00 56 1019.6
20260902102537 85 276 0.9 5.2 0.00 0.00 0.00 51 1019.5
20260902102037 84 0 2.6 6.1 0.00 0.00 0.00 56 1019.6
20260902101551 85 138 2.6 7.8 0.00 0.00 0.00 57 1019.7
20260902101036 85 144 2.6 7.8 0.00 0.00 0.00 57 1019.7
20260902100536 85 205 2.6 7.8 0.00 0.00 0.00 51 1019.7
20260902100124 84 182 1.7 7.8 0.00 0.00 0.00 56 1019.8
20260902095537 84 142 2.6 6.1 0.00 0.00 0.00 57 1019.9
20260902095037 83 159 2.6 6.1 0.00 0.00 0.00 58 1019.9
20260902094614 83 84 1.7 5.2 0.00 0.00 0.00 58 1019.9
20260902094037 83 129 0.9 3.5 0.00 0.00 0.00 58 1020.0
20260902093537 83 137 1.7 7.0 0.00 0.00 0.00 58 1020.0
20260902093109 83 127 3.5 7.0 0.00 0.00 0.00 57 1020.0
20260902092536 84 144 2.6 6.1 0.00 0.00 0.00 56 1020.0
20260902092040 84 156 0.9 6.1 0.00 0.00 0.00 57 1020.0
20260902091557 83 103 2.6 6.1 0.00 0.00 0.00 58 1019.9
20260902091036 83 56 1.7 6.1 0.00 0.00 0.00 58 1019.9
20260902090537 83 146 1.7 5.2 0.00 0.00 0.00 59 1019.9
20260902090057 83 96 1.7 5.2 0.00 0.00 0.00 59 1020.1
20260902085538 83 13 1.7 3.5 0.00 0.00 0.00 59 1020.0
20260902085037 82 95 1.7 6.1 0.00 0.00 0.00 60 1020.1
20260902084559 82 19 2.6 6.1 0.00 0.00 0.00 61 1020.1
20260902084039 81 0 0.9 3.5 0.00 0.00 0.00 63 1020.1
20260902083537 80 25 0.9 3.5 0.00 0.00 0.00 65 1020.1
20260902083058 80 51 0.0 3.5 0.00 0.00 0.00 65 1020.0
20260902082541 80 51 0.0 6.1 0.00 0.00 0.00 66 1020.0
20260902082037 80 98 1.7 6.1 0.00 0.00 0.00 65 1020.0
20260902081555 80 139 1.7 6.1 0.00 0.00 0.00 65 1020.0
20260902081036 80 142 1.7 6.1 0.00 0.00 0.00 65 1020.0
20260902080534 79 129 2.6 6.1 0.00 0.00 0.00 65 1019.9
20260902080105 79 110 2.6 5.2 0.00 0.00 0.00 65 1019.8
20260902075541 79 116 1.7 5.2 0.00 0.00 0.00 67 1019.9
20260902075036 79 96 0.9 3.5 0.00 0.00 0.00 68 1019.8
20260902074602 78 109 0.9 5.2 0.00 0.00 0.00 69 1019.8
20260902074037 78 86 0.9 5.2 0.00 0.00 0.00 69 1019.7
20260902073536 78 113 1.7 5.2 0.00 0.00 0.00 68 1019.7
20260902073109 77 134 0.9 3.5 0.00 0.00 0.00 70 1019.8
20260902072536 77 83 0.9 3.5 0.00 0.00 0.00 70 1019.7
20260902072036 77 71 0.9 3.5 0.00 0.00 0.00 70 1019.7
20260902071602 76 73 1.7 3.5 0.00 0.00 0.00 72 1019.7
20260902071036 76 83 0.9 3.5 0.00 0.00 0.00 72 1019.7
20260902070537 75 131 0.0 2.6 0.00 0.00 0.00 75 1019.7
20260902070054 75 0 0.9 3.5 0.00 0.00 0.00 75 1019.6
20260902065537 75 142 0.9 3.5 0.00 0.00 0.00 74 1019.6
20260902065037 74 92 0.9 3.5 0.00 0.00 0.00 76 1019.6
20260902064554 74 43 0.9 2.6 0.00 0.00 0.00 78 1019.7
20260902064036 74 67 0.9 2.6 0.00 0.00 0.00 79 1019.7
20260902063536 73 57 0.9 1.7 0.00 0.00 0.00 80 1019.6
20260902063057 73 98 0.0 2.6 0.00 0.00 0.00 81 1019.6
20260902062536 72 55 0.0 2.6 0.00 0.00 0.00 81 1019.6
20260902062036 72 32 0.9 2.6 0.00 0.00 0.00 82 1019.6
20260902061615 72 55 0.0 1.7 0.00 0.00 0.00 83 1019.6
20260902061040 71 55 0.0 1.7 0.00 0.00 0.00 83 1019.5
20260902060536 71 70 0.0 1.7 0.00 0.00 0.00 83 1019.5
20260902060100 71 0 0.0 0.9 0.00 0.00 0.00 83 1019.6
20260902055536 71 0 0.0 0.9 0.00 0.00 0.00 84 1019.5
20260902055036 71 0 0.0 0.9 0.00 0.00 0.00 83 1019.5
20260902054600 70 0 0.0 0.9 0.00 0.00 0.00 83 1019.4
20260902054041 70 0 0.0 0.9 0.00 0.00 0.00 83 1019.3
20260902053537 70 0 0.0 0.9 0.00 0.00 0.00 83 1019.3
20260902053105 70 0 0.0 0.9 0.00 0.00 0.00 83 1019.3
20260902052537 70 0 0.0 0.9 0.00 0.00 0.00 83 1019.2
20260902052039 70 0 0.0 0.9 0.00 0.00 0.00 83 1019.2
20260902051558 70 0 0.0 0.9 0.00 0.00 0.00 82 1019.1
20260902051037 70 70 0.0 0.9 0.00 0.00 0.00 82 1019.0
20260902050538 70 0 0.0 0.9 0.00 0.00 0.00 82 1019.0
20260902050101 70 0 0.0 0.9 0.00 0.00 0.00 82 1018.9
20260902045537 71 0 0.0 0.9 0.00 0.00 0.00 82 1018.8
20260902045037 71 0 0.0 1.7 0.00 0.00 0.00 81 1018.8
20260902044559 71 0 0.0 1.7 0.00 0.00 0.00 82 1018.8
20260902044038 71 70 0.9 1.7 0.00 0.00 0.00 81 1018.8
20260902043537 71 70 0.0 1.7 0.00 0.00 0.00 81 1019.0
20260902043102 71 0 0.0 0.0 0.00 0.00 0.00 81 1019.0
20260902042539 71 0 0.0 0.0 0.00 0.00 0.00 81 1019.0
20260902042037 71 0 0.0 0.9 0.00 0.00 0.00 81 1018.9
20260902041620 71 0 0.0 1.7 0.00 0.00 0.00 80 1018.9
20260902041038 71 0 0.0 1.7 0.00 0.00 0.00 80 1018.8
20260902040537 71 0 0.9 2.6 0.00 0.00 0.00 81 1018.9
20260902040100 71 77 0.9 2.6 0.00 0.00 0.00 81 1018.8
20260902035537 71 87 0.9 2.6 0.00 0.00 0.00 81 1018.7
20260902035038 71 94 0.0 2.6 0.00 0.00 0.00 82 1018.6
20260902034556 71 96 0.9 3.5 0.00 0.00 0.00 82 1018.6
20260902034037 71 81 0.9 3.5 0.00 0.00 0.00 82 1018.7
20260902033536 71 62 1.7 3.5 0.00 0.00 0.00 82 1018.7
20260902033051 71 69 0.9 3.5 0.00 0.00 0.00 82 1018.7
20260902032538 71 81 1.7 3.5 0.00 0.00 0.00 83 1018.6
20260902032038 71 81 1.7 3.5 0.00 0.00 0.00 83 1018.7
20260902031615 71 28 1.7 3.5 0.00 0.00 0.00 83 1018.7
20260902031039 71 41 0.9 2.6 0.00 0.00 0.00 84 1018.8
20260902030539 71 53 0.9 3.5 0.00 0.00 0.00 84 1018.8
20260902030059 71 65 0.9 3.5 0.00 0.00 0.00 84 1018.8
20260902025538 71 63 0.9 3.5 0.00 0.00 0.00 84 1018.8
20260902025037 72 48 0.9 2.6 0.00 0.00 0.00 84 1018.7
20260902024605 72 48 1.7 2.6 0.00 0.00 0.00 84 1018.7
20260902024036 72 55 0.9 1.7 0.00 0.00 0.00 84 1018.7
20260902023536 72 36 0.0 1.7 0.00 0.00 0.00 84 1018.7
20260902023103 72 36 0.9 2.6 0.00 0.00 0.00 84 1018.7
20260902022538 72 36 0.9 2.6 0.00 0.00 0.00 83 1018.7
20260902022038 72 36 0.0 1.7 0.00 0.00 0.00 83 1018.7
20260902021603 72 36 0.0 2.6 0.00 0.00 0.00 83 1018.6
20260902021038 72 36 0.9 2.6 0.00 0.00 0.00 83 1018.6
20260902020537 72 36 0.9 2.6 0.00 0.00 0.00 83 1018.5
20260902020103 72 58 0.9 2.6 0.00 0.00 0.00 83 1018.5
20260902015539 72 64 0.9 2.6 0.00 0.00 0.00 82 1018.5
20260902015041 72 55 0.9 3.5 0.00 0.00 0.00 82 1018.5
20260902014558 72 21 0.9 3.5 0.00 0.00 0.00 82 1018.6
20260902014039 72 46 0.9 3.5 0.00 0.00 0.00 82 1018.7
20260902013538 73 29 1.7 3.5 0.00 0.00 0.00 81 1018.6
20260902013057 73 48 1.7 3.5 0.00 0.00 0.00 81 1018.6
20260902012538 73 33 0.9 2.6 0.00 0.00 0.00 80 1018.7
20260902012037 73 31 0.9 2.6 0.00 0.00 0.00 80 1018.6
20260902011604 73 31 0.9 2.6 0.00 0.00 0.00 80 1018.6
20260902011037 73 31 0.9 2.6 0.00 0.00 0.00 79 1018.7
20260902010537 73 31 0.9 2.6 0.00 0.00 0.00 79 1018.6
20260902010100 73 31 0.9 2.6 0.00 0.00 0.00 79 1018.6
20260902005538 73 31 0.9 2.6 0.00 0.00 0.00 79 1018.7
20260902005037 73 31 0.9 2.6 0.00 0.00 0.00 79 1018.7
20260902004559 73 36 0.9 2.6 0.00 0.00 0.00 78 1018.7
20260902004040 73 25 1.7 2.6 0.00 0.00 0.00 78 1018.7
20260902003537 73 23 0.9 2.6 0.00 0.00 0.00 78 1018.7
20260902003106 73 23 0.0 2.6 0.00 0.00 0.00 78 1018.6
20260902002538 73 34 0.9 2.6 0.00 0.00 0.00 78 1018.6
20260902002037 73 0 1.7 2.6 0.00 0.00 0.00 78 1018.5
20260902001609 74 36 0.9 2.6 0.00 0.00 0.00 78 1018.6
20260902001036 74 29 1.7 2.6 0.00 0.00 0.00 78 1018.5
20260902000537 74 16 0.9 2.6 0.00 0.00 0.00 78 1018.5
20260902000059 74 39 0.9 2.6 0.00 0.00 0.00 78 1018.5
20260901235537 74 39 0.9 3.5 0.00 0.00 0.00 77 1018.5
20260901235037 74 37 0.9 3.5 0.00 0.00 0.00 77 1018.5
20260901234606 74 29 0.9 3.5 0.00 0.00 0.00 77 1018.6
20260901234037 74 33 0.9 2.6 0.00 0.00 0.00 77 1018.6
20260901233538 74 31 0.9 2.6 0.00 0.00 0.00 76 1018.6
20260901233109 74 28 1.7 2.6 0.00 0.00 0.00 76 1018.6
20260901232540 75 35 0.9 2.6 0.00 0.00 0.00 76 1018.6
20260901232038 75 44 0.9 2.6 0.00 0.00 0.00 76 1018.6
20260901231608 75 61 0.9 2.6 0.00 0.00 0.00 75 1018.5
20260901231038 75 36 0.9 2.6 0.00 0.00 0.00 75 1018.5
20260901230538 75 36 0.9 2.6 0.00 0.00 0.00 75 1018.6
20260901230109 75 36 0.9 2.6 0.00 0.00 0.00 75 1018.6
20260901225538 75 15 0.9 3.5 0.00 0.00 0.00 74 1018.6
20260901225038 75 29 1.7 3.5 0.00 0.00 0.00 74 1018.5
20260901224555 75 30 0.9 2.6 0.00 0.00 0.00 74 1018.6
20260901224037 76 30 0.9 2.6 0.00 0.00 0.00 74 1018.6
20260901223635 76 16 0.9 2.6 0.00 0.00 0.00 74 1018.6
20260901223058 76 25 0.9 2.6 0.00 0.00 0.00 74 1018.5
20260901222536 76 51 0.9 2.6 0.00 0.00 0.00 73 1018.3
20260901222035 76 59 1.7 3.5 0.00 0.00 0.00 73 1018.3
20260901221601 76 73 1.7 3.5 0.00 0.00 0.00 73 1018.4
20260901221035 76 73 1.7 3.5 0.00 0.00 0.00 73 1018.4
20260901220536 77 121 0.9 2.6 0.00 0.00 0.00 72 1018.4
20260901220104 77 130 0.9 2.6 0.00 0.00 0.00 72 1018.4
20260901215536 77 135 0.9 2.6 0.00 0.00 0.00 72 1018.3
20260901215038 77 132 0.9 2.6 0.00 0.00 0.00 71 1018.3
20260901214603 77 0 0.0 2.6 0.00 0.00 0.00 71 1018.3
20260901214034 77 113 0.9 2.6 0.00 0.00 0.00 71 1018.3
20260901213537 77 118 0.9 2.6 0.00 0.00 0.00 71 1018.3
20260901213136 77 121 0.9 3.5 0.00 0.00 0.00 71 1018.3
20260901212534 78 112 0.9 3.5 0.00 0.00 0.00 71 1018.3
20260901212034 78 107 1.7 3.5 0.00 0.00 0.00 71 1018.3
20260901211556 78 108 1.7 3.5 0.00 0.00 0.00 71 1018.2
20260901211035 78 115 1.7 3.5 0.00 0.00 0.00 71 1018.2
20260901210535 78 102 1.7 3.5 0.00 0.00 0.00 70 1018.1
20260901210052 78 125 1.7 3.5 0.00 0.00 0.00 70 1018.3
20260901205537 78 128 1.7 3.5 0.00 0.00 0.00 70 1018.3
20260901205036 78 128 1.7 3.5 0.00 0.00 0.00 70 1018.4
20260901204556 78 107 1.7 3.5 0.00 0.00 0.00 70 1018.3
20260901204037 78 113 1.7 3.5 0.00 0.00 0.00 70 1018.3
20260901203539 78 109 0.9 3.5 0.00 0.00 0.00 70 1018.3
20260901203117 79 94 0.9 2.6 0.00 0.00 0.00 70 1018.3
20260901202538 79 98 1.7 3.5 0.00 0.00 0.00 70 1018.3
20260901202039 79 89 1.7 3.5 0.00 0.00 0.00 70 1018.2
20260901201557 79 76 0.9 3.5 0.00 0.00 0.00 70 1018.1
20260901201038 79 101 1.7 3.5 0.00 0.00 0.00 70 1018.1
20260901200538 79 96 0.9 3.5 0.00 0.00 0.00 70 1018.0
20260901200056 79 113 1.7 3.5 0.00 0.00 0.00 70 1018.1
20260901195537 80 110 1.7 6.1 0.00 0.00 0.00 70 1018.0
20260901195042 80 85 1.7 6.1 0.00 0.00 0.00 69 1018.1